sat.trackr.live / text

‹ back to catalog

KUIPER-00129

NORAD 65958 · 2025-228M

PAYLOAD ACTIVE UNKNOWN

§ Identity

Operator
Country
US
Launch date
2025-10-14
Launch site
AFETR
Launch vehicle
Mass (kg)
RCS (m²)

External: N2YO · Heavens-Above · Gunter

§ Orbital elements

Epoch: 2026-09-20T10:20:47.371776Z

Period
97.30 min
Inclination
51.8993°
Eccentricity
0.0001141
Mean motion
14.79955610 rev/d
Perigee alt
628.7 km
Apogee alt
630.3 km
Semi-major
7,007.6 km
B*
9.0625e-4
RAAN
206.9616°
Arg perigee
132.3862°
Mean anomaly
227.7197°
Rev number
5,224

§ Raw data

KUIPER-001291 65958U 25228M   26263.43110384  .00006698  00000+0  90625-3 0  99982 65958  51.8993 206.9616 0001141 132.3862 227.7197 14.79955610 52247

JSON: /api/v1/satellites/65958 · /tle

For live sub-satellite position, see the globe view (requires WebGL).

§ Visibility from observer

Set your observer location to see the next 7 days of passes ≥ 10°. The values pass through the URL so the page stays shareable.

No JS? Fill the form by hand. The geolocation button needs JavaScript.